Location: Caltech
(34.1382°N, 118.1253°W)
Time: 03:26:35
(UTC-07:00)

Gurwin Techsat 1B - Visible Passes

Search period start: 02 October 2014 00:00
Search period end: 12 October 2014 00:00
Orbit: 812 x 815 km, 98.5° (Epoch: 30 September)

Date Brightness Start Highest point End Pass type
(mag) Time Alt. Az. Time Alt. Az. Time Alt. Az.
02 Oct 11.1 03:32:18 10° NNE 03:33:11 15° NNE 03:33:11 15° NNE visible
03 Oct 11.5 03:09:55 10° NNE 03:10:08 11° NNE 03:10:08 11° NNE visible
03 Oct 10.7 04:50:40 10° NNW 04:51:21 13° NNW 04:51:21 13° NNW visible
04 Oct 10.7 04:27:22 10° N 04:28:18 15° NNW 04:28:18 15° NNW visible
05 Oct 10.9 04:04:23 10° N 04:05:15 15° N 04:05:15 15° N visible
06 Oct 11.2 03:41:39 10° NNE 03:42:12 13° NNE 03:42:12 13° NNE visible
07 Oct 11.5 03:19:08 10° NNE 03:19:08 10° NNE 03:19:08 10° NNE visible
08 Oct 10.9 04:36:57 10° NNW 04:37:18 12° NNW 04:37:18 12° NNW visible
09 Oct 11.0 04:13:51 10° N 04:14:15 12° N 04:14:15 12° N visible
10 Oct 11.3 03:51:01 10° N 03:51:11 11° N 03:51:11 11° N visible
